Regional Weather Roundup
Issued by NWS Bismarck, ND

Home | Current Version | Previous Version | Text Only | Print | Product List | Glossary Off
Versions: 1 2 3 4 5 6 7 8 9 10 11 12 13 14 15 16 17 18 19 20 21 22 23 24 25 26 27 28 29 30 31 32 33 34 35 36 37 38 39 40 41 42 43 44 45 46 47 48 49 50

000
ASUS43 KBIS 282002
RWRBIS

NWR BROADCAST TEXT
NATIONAL WEATHER SERVICE BISMARCK ND
300 PM CDT TUE JUL 28 2015

NOTE: "FAIR" INDICATES FEW OR NO CLOUDS BELOW 12,000 FEET WITH NO
SIGNIFICANT WEATHER AND/OR OBSTRUCTIONS TO VISIBILITY.


CITY           SKY/WX    TMP DP  RH WIND       PRES   REMARKS
WILLISTON      LGT RAIN  62  53  72 W38G49    29.59R
MINOT          LGT RAIN  67  49  52 SW31G53   29.52R
MINOT AFB      CLOUDY    68  54  61 SW35G45   29.48S
BISMARCK       PTSUNNY   73  50  44 W36G49    29.74R
DICKINSON      CLOUDY    64  47  53 W43G58    29.78R
GARRISON         N/A     64  52  64 W26G38    29.62R
HETTINGER ARPT CLOUDY    65  46  50 W37G53    29.90R
JAMESTOWN      PTSUNNY   75  52  44 SW25G37   29.70F
HAZEN          MOCLDY    68  48  49 W32G46    29.69R
OAKES            N/A     77  55  47 SW22G33   29.78R
STANLEY        FAIR      57  57 100 W36G52    29.53R
$$

CITY           SKY/WX    TMP DP  RH WIND       PRES   REMARKS
GRAND FORKS    PTSUNNY   76  55  48 SW22G33   29.62R
GRAND FORKS AF NOT AVBL
DEVILS LAKE    CLOUDY    72  52  49 SW26G43   29.59S
FARGO          MOSUNNY   79  56  45 SW22G31   29.71R
CAVALIER       FAIR      75  55  50 SW22G33   29.55S
GRAFTON        FAIR      75  57  53 SW28      29.59S
GWINNER        FAIR      75  55  50 W23G33    29.78R
LANGDON        MOCLDY    75  54  46 SW30      29.56S
$$

CITY           SKY/WX    TMP DP  RH WIND       PRES   REMARKS
ABERDEEN       SUNNY     79  52  38 W26G35    29.83R
MOBRIDGE       MOSUNNY   77  51  40 W26G40    29.83S
BUFFALO          N/A     68  43  40 W45G59    29.92R
RAPID CITY     MOSUNNY   76  42  29 NW16      30.03R
GLASGOW        LGT RAIN  57  53  86 W30G43    29.83R
SIDNEY         CLOUDY    59  54  82 SW29G47   29.72R
WOLF POINT     CLOUDY    62  53  72 W33G47    29.76R
GLENDIVE       CLOUDY    63  52  67 W37G53    29.86R
MILES CITY     LGT RAIN  60  50  69 NW24G32   29.99R
$$

CITY           SKY/WX    TMP DP  RH WIND       PRES   REMARKS
BILLINGS       PTSUNNY   69  36  29 W24G33    30.14S
GREAT FALLS    PTSUNNY   73  37  27 W15G22    30.11S
$$



USA.gov is the U.S. government's official web portal to all federal, state and local government web resources and services.